Flag for Germany Weather past 2 weeks in Hilden, North Rhine-Westphalia, Germany

Now
52 °F

Partly sunny.


Feels Like: 47 °F
Forecast: 43 / 54 °F
Wind: 15 mph from Northwest

Location: Duesseldorf

Current Time: Oct 22, 2014 at 4:05:39 PM

Latest Report: Oct 22, 2014 at 3:20 PM


Visibility: N/A

Pressure: 30.07 "Hg

Humidity: 77%

Dew point: 45 °F

Location of HildenLocation

Historic Weather in Hilden — Graph

°F

Hilden temperature yesterday

Maximum temperature yesterday: 57 °F (at 11:50 AM)
Minimum temperature yesterday: 45 °F (at 10:50 PM)
Average temperature yesterday: 52 °F

Past Weeks' High & Low Weather Summary

 TemperatureHumidityPressure
High75 °F (Oct 19, 2:20 PM)100% (Oct 9, 2:50 AM)30.09 "Hg (Oct 9, 2:50 AM)
Low45 °F (Oct 21, 10:50 PM)49% (Oct 14, 2:20 PM)29.50 "Hg (Oct 21, 3:20 PM)
Average58 °F81%29.84 "Hg
* Reported Oct 7 2:20 PM — Oct 22 2:50 PM, Hilden, Weather by CustomWeather, © 2014

Note: Actual official high and low records may vary slightly from our data, if they occured in-between our weather recording intervals... More about our weather records

Advertising

Hilden weather history for previous 24 hours

 ConditionsComfort  
Time TempWeatherWind HumidityBarometerVisibility
2:50 PM
Oct 22
50 °FSprinkles. Broken clouds.8 mph88%30.07 "HgN/A
2:20 PM52 °FSprinkles. Broken clouds.15 mph77%30.04 "HgN/A
1:50 PM52 °FSprinkles. Broken clouds.18 mph72%30.04 "HgN/A
1:20 PM52 °FBroken clouds.16 mph77%30.04 "HgN/A
12:50 PM52 °FScattered showers. Scattered clouds.16 mph77%30.04 "HgN/A
12:20 PM50 °FBroken clouds.17 mph76%30.04 "HgN/A
11:50 AM48 °FBroken clouds.16 mph82%30.04 "HgN/A
11:20 AM46 °FSprinkles. Broken clouds.13 mph87%30.04 "HgN/A
10:50 AM46 °FPartly sunny.12 mph87%30.04 "HgN/A
10:20 AM46 °FSprinkles. Broken clouds.14 mph87%30.01 "HgN/A
9:50 AM46 °FSprinkles. Broken clouds.14 mph87%30.01 "HgN/A
9:20 AM46 °FSprinkles. Broken clouds.14 mph87%30.01 "HgN/A
8:50 AM46 °FPartly cloudy.14 mph82%29.98 "HgN/A
8:20 AM46 °FSprinkles. Partly cloudy.15 mph82%29.98 "HgN/A
7:50 AM46 °FSprinkles. Partly cloudy.15 mph82%29.95 "HgN/A
7:20 AM46 °FPartly cloudy.16 mph82%29.95 "HgN/A
6:50 AM46 °FPassing clouds.15 mph82%29.95 "HgN/A
6:20 AM45 °FPartly cloudy.15 mph87%29.92 "HgN/A
5:50 AM46 °FPassing clouds.14 mph82%29.92 "HgN/A
5:20 AM45 °FSprinkles. Partly cloudy.16 mph87%29.92 "HgN/A
4:50 AM45 °FPartly cloudy.15 mph87%29.92 "HgN/A
4:20 AM45 °FPassing clouds.13 mph87%29.89 "HgN/A
3:50 AM45 °FClear.13 mph87%29.89 "Hg10 mi
3:20 AM46 °FPartly cloudy.13 mph82%29.89 "HgN/A
2:50 AM46 °FLight rain. Partly cloudy.14 mph87%29.89 "HgN/A
2:20 AM46 °FSprinkles. Partly cloudy.14 mph87%29.86 "HgN/A
1:50 AM45 °FSprinkles. Partly cloudy.14 mph93%29.86 "HgN/A
1:20 AM45 °FSprinkles. Passing clouds.13 mph93%29.86 "HgN/A
12:50 AM46 °FSprinkles. Partly cloudy.15 mph87%29.83 "HgN/A
12:20 AM45 °FSprinkles. Partly cloudy.14 mph93%29.83 "HgN/A
11:50 PM
Oct 21
45 °FSprinkles. Partly cloudy.13 mph87%29.80 "HgN/A
11:20 PM45 °FSprinkles. Mostly cloudy.15 mph87%29.77 "HgN/A
10:50 PM45 °FRain showers. Passing clouds.15 mph87%29.77 "Hg5 mi
10:20 PM46 °FSprinkles. Partly cloudy.10 mph82%29.74 "HgN/A
9:50 PM46 °FPassing clouds.14 mph82%29.71 "HgN/A
9:20 PM48 °FSprinkles. Partly cloudy.15 mph82%29.68 "HgN/A
8:50 PM48 °FPassing clouds.15 mph82%29.68 "HgN/A
8:20 PM50 °FSprinkles. Partly cloudy.17 mph76%29.65 "HgN/A
7:50 PM50 °FPassing clouds.15 mph76%29.65 "HgN/A
7:20 PM50 °FPartly sunny.17 mph76%29.62 "HgN/A
6:50 PM50 °FSprinkles. Broken clouds.24 mph82%29.62 "HgN/A
6:20 PM52 °FPartly sunny.17 mph82%29.59 "HgN/A
5:50 PM52 °FSprinkles. Broken clouds.20 mph82%29.56 "HgN/A
5:20 PM52 °FSprinkles. Broken clouds.13 mph88%29.56 "HgN/A
4:50 PM52 °FPartly sunny.20 mph88%29.53 "HgN/A
4:20 PM55 °FRain showers. Broken clouds.26 mph88%29.50 "HgN/A
Weather by CustomWeather, © 2014

See weather overviewHow to use our weather pages